CAPE
129 189 170 189 186 162 139 96 118 100 61 113 171 98 63 41 13 10 22 1 0 0 0 0 0 0 0 0 0 0 0 0 0 4 14 30 55 77
39 102 68 114 135 152 130 114 132 133 95 130 181 129 117 1 3 0 5 0 0 0 0 0 0 0 0 0 0 0 0 0 0 0 0 0 0 0
2 54 41 79 59 98 117 97 60 124 73 89 199 204 167 139 89 19 1 16 54 0 0 0 0 0 0 0 0 0 0 0 0 0 0 0 0 0
6 7 10 23 24 15 13 18 18 14 19 29 21 19 21 29 39 124 115 44 96 2 0 0 0 0 0 0 0 0 0 0 0 0 0 0 0 0
12 27 10 15 11 14 5 3 2 66 77 112 78 77 145 235 286 236 220 344 197 23 0 0 0 0 0 0 0 0 0 0 0 0 0 0 0 0
1 0 1 5 7 8 7 28 2 29 49 15 7 19 63 136 221 236 254 309 185 75 28 3 0 0 0 0 0 0 0 0 0 0 0 0 0 0
34 12 22 2 4 30 121 91 126 174 200 230 148 96 84 135 124 103 52 28 53 216 78 23 1 1 3 2 2 1 0 0 0 0 0 0 0 0
50 59 60 0 0 0 0 0 0 132 60 49 22 3 0 0 0 0 1 2 6 0 0 1 0 1 1 3 3 2 3 2 3 3 3 3 1 0
20 8 5 0 0 0 0 0 0 0 1 0 0 0 0 1 1 0 0 0 0 0 0 0 1 2 4 7 7 7 6 5 5 4 4 4 4 3
0 0 0 0 0 0 0 0 1 1 0 1 1 1 1 1 1 2 2 0 0 1 1 1 1 2 5 5 7 8 7 7 11 11 8 7 7 4
1 2 0 0 1 0 0 1 0 2 4 5 4 4 3 2 1 1 1 2 3 1 2 4 3 2 3 5 6 3 3 4 4 3 2 2 2 0
1 2 1 2 0 0 1 0 1 3 0 2 2 1 6 3 1 6 7 3 2 2 4 4 6 8 6 13 10 12 16 0 0 2 2 3 1 5
2 3 4 2 2 1 0 1 2 2 2 3 3 4 7 9 10 12 15 11 9 10 6 12 7 10 7 9 7 6 7 5 5 2 0 0 0 0
7 11 12 4 4 2 6 1 0 3 11 10 9 10 12 13 13 9 7 5 5 6 2 5 6 5 6 6 7 4 1 1 0 0 0 0 0 0
10 9 2 1 2 4 1 1 3 21 22 8 7 9 8 8 5 5 6 2 0 0 0 0 0 0 0 3 0 0 0 0 0 0 0 0 0 1
4 18 3 3 3 10 10 17 13 11 7 8 9 10 6 3 2 0 0 1 0 0 0 0 0 0 0 0 0 0 0 0 0 0 0 0 0 3
12 16 10 11 11 11 10 8 8 8 9 9 7 3 0 0 0 0 0 0 0 0 0 0 0 0 0 0 0 0 0 0 0 0 0 1 1 4
10 13 12 14 12 10 9 6 3 1 0 1 3 0 0 0 0 0 0 0 0 0 0 0 0 0 0 0 0 0 0 0 0 0 1 4 1 1
11 12 14 13 8 3 2 1 1 2 0 1 2 3 4 1 2 0 1 1 0 0 0 0 0 0 2 5 0 0 0 0 1 4 3 4 5 1
8 11 11 7 2 1 1 2 3 4 4 2 4 6 8 6 5 3 1 2 1 0 0 0 0 0 1 6 8 8 0 3 7 7 8 5 10 1
2 3 7 5 4 4 11 10 8 7 7 8 8 5 10 9 3 4 6 0 0 0 0 0 0 0 0 3 11 6 5 0 1 6 9 10 7 1
5 3 4 7 11 9 13 11 8 7 6 4 8 10 11 10 7 5 5 5 3 2 0 0 0 0 0 1 3 4 6 6 0 0 0 2 12 12
9 7 11 11 9 7 6 8 5 9 5 5 6 5 7 9 4 7 8 4 2 2 1 2 2 1 2 2 2 10 4 2 2 3 9 0 0 0
CIN
-9 -8 -6 -1 -2 -0 0 -4 0 -0 0 -2 -9 -66 -85 -104 -93 -113 -75 -117 0 0 0 0 0 0 0 0 0 0 0 0 0 -126 -135 -88 -44 -22
-25 -12 -17 -4 -0 -4 -12 -13 -13 -6 -0 0 -1 -1 -26 -107 -47 0 -176 0 0 0 0 0 0 0 0 0 0 0 0 0 0 0 0 0 0 0
-6 -10 -17 -13 -35 -38 -37 -62 -77 -21 -10 -1 0 -0 -1 -8 -21 -100 -80 -106 -56 0 0 0 0 0 0 0 0 0 0 0 0 0 0 0 0 -0
0 -3 -33 -57 -53 -76 -84 -81 -45 -40 -40 -12 -35 -38 -70 -80 -63 -14 -5 -6 -1 -25 0 0 0 0 0 0 0 0 0 0 0 0 0 0 0 0
-0 -2 -23 -31 -34 -47 -67 -45 -19 -0 -5 0 -0 -4 0 0 0 -0 0 0 0 -3 0 0 0 0 0 0 0 0 0 0 0 0 0 0 0 0
-0 0 -14 -38 -53 -66 -41 -19 -32 -3 -1 -3 -13 -7 -5 0 0 0 0 0 -0 -0 -4 -15 0 0 0 0 0 0 0 0 0 0 0 0 0 0
-1 -0 -0 -33 -48 -20 -0 -1 0 0 0 0 0 0 -0 0 0 -1 -5 -3 -0 0 -1 -7 0 0 0 0 0 0 0 0 0 0 0 0 0 0
0 0 0 -10 -1 0 0 0 -1 -0 -1 -1 -2 -2 -40 -1 0 -2 -2 -1 -1 0 0 0 0 0 0 0 0 0 0 0 0 0 0 0 0 0
-4 -7 -9 -16 0 0 0 0 0 0 0 0 0 0 0 0 0 0 0 0 0 0 0 0 0 0 0 0 0 0 0 0 0 0 0 0 0 0
0 0 0 0 0 0 0 0 0 0 0 0 0 0 0 0 0 0 0 0 0 0 0 0 0 0 0 0 0 0 0 0 0 0 0 0 0 0
0 0 0 0 0 0 0 0 0 0 0 0 0 0 0 0 0 0 0 0 0 0 0 0 0 0 0 0 0 0 0 0 0 0 0 0 0 0
0 0 0 0 0 0 0 0 0 0 0 0 0 0 0 0 0 0 0 0 0 0 0 0 0 0 0 0 0 0 0 0 0 0 0 0 0 0
0 0 0 0 0 0 0 0 0 0 0 0 0 0 0 0 0 0 0 0 0 0 0 0 0 0 0 0 0 0 0 0 0 -0 -0 0 0 0
0 0 0 0 0 0 0 0 0 0 0 0 0 0 0 0 0 0 0 0 0 0 0 0 0 0 0 0 0 0 0 0 0 0 0 0 0 0
0 0 0 0 0 0 0 0 -0 0 0 0 0 0 0 0 0 0 0 0 0 0 0 0 0 0 0 0 0 0 0 0 0 0 0 0 0 0
0 0 -0 -0 0 0 0 0 0 0 0 0 0 0 0 0 0 0 0 0 0 0 0 0 0 0 0 0 0 0 0 0 0 0 0 0 0 0
0 0 0 0 0 0 0 0 0 0 0 0 0 0 0 0 0 0 0 0 0 0 0 0 0 0 0 0 0 0 0 0 0 0 0 0 0 0
0 0 0 0 0 0 0 0 0 0 0 0 0 0 0 0 0 0 0 0 0 0 0 0 0 0 0 0 0 0 0 0 0 0 0 0 0 0
0 0 0 0 0 0 0 0 0 0 0 0 0 0 0 0 0 0 0 0 0 0 0 0 0 0 0 0 0 0 0 0 0 0 0 0 0 0
0 0 0 0 0 0 0 0 0 0 0 0 0 0 0 0 0 0 0 0 0 0 0 0 0 0 0 0 0 0 0 0 0 0 0 0 0 -0
0 0 0 0 0 0 0 0 0 0 0 0 0 0 0 0 0 0 0 0 0 0 0 0 0 0 0 0 0 0 0 0 0 0 0 0 0 0
0 0 0 0 0 0 0 0 0 0 0 0 0 0 0 0 0 0 0 0 0 0 0 0 0 0 0 0 0 0 0 0 0 0 0 0 0 0
0 0 0 0 0 0 0 0 0 0 0 0 0 0 0 0 0 0 0 0 0 0 0 0 0 0 0 0 0 0 0 0 0 0 0 0 0 0
Wind_Speed
12 12 10 8 9 9 8 7 8 8 11 9 7 9 9 9 11 11 10 13 16 19 22 22 24 25 26 27 27 27 27 27 28 30 30 30 32 33
8 11 10 9 9 8 8 7 7 8 12 9 8 7 9 6 10 10 11 15 15 19 21 22 24 25 25 24 24 26 27 28 29 28 29 30 31 32
10 11 13 11 7 5 5 4 3 7 8 11 11 10 11 12 14 11 13 15 15 18 20 22 23 25 25 25 26 28 27 26 27 28 29 29 30 30
15 10 13 7 10 7 5 5 6 10 7 15 15 11 12 14 17 18 16 16 16 20 24 25 25 23 21 22 24 25 24 24 25 26 27 28 29 29
13 12 11 11 11 9 9 11 12 13 12 13 15 14 14 14 15 17 17 17 16 18 16 19 20 20 21 22 22 22 23 22 22 22 23 24 25 26
14 12 13 13 13 13 12 15 13 12 11 9 10 13 14 16 14 14 14 13 13 14 16 17 17 16 10 8 9 13 16 17 19 19 19 18 18 21
18 19 18 14 15 16 12 14 15 13 12 13 12 13 13 13 13 11 11 11 13 13 11 9 7 7 9 12 11 12 8 7 6 5 7 9 9 9
12 13 15 15 16 16 16 18 16 14 13 10 9 12 14 12 11 11 12 12 12 6 4 4 4 5 5 6 13 14 15 16 16 15 14 13 12 12
9 8 7 4 4 6 10 14 13 9 2 8 12 10 6 5 4 4 1 2 1 3 3 1 3 5 6 7 16 18 18 18 18 17 16 15 15 14
11 9 8 7 8 6 3 7 9 10 8 7 9 7 6 5 4 4 4 3 3 4 6 1 3 4 5 6 16 17 17 16 16 15 14 12 10 9
12 14 10 9 12 7 2 8 9 10 15 21 19 16 19 19 13 1 3 1 1 4 7 3 2 2 1 2 4 12 13 14 13 12 11 12 9 5
9 10 19 14 16 12 3 8 10 7 7 7 10 10 15 14 19 10 5 3 2 2 6 2 1 1 3 2 3 3 2 5 7 9 11 12 15 6
8 8 8 18 20 22 19 11 9 8 10 8 8 7 7 9 8 9 10 8 5 5 6 3 2 1 1 1 2 2 3 3 3 2 2 7 9 9
10 8 11 21 22 22 16 19 15 9 6 6 7 7 7 8 8 9 10 10 9 7 6 5 1 2 2 3 3 2 2 1 4 5 5 6 7 8
10 13 16 17 18 17 21 17 10 6 6 7 7 6 6 5 3 3 4 5 7 8 7 8 5 5 4 4 5 3 6 4 3 6 6 7 7 6
12 10 10 11 14 11 10 11 9 9 8 7 6 5 5 5 5 5 4 4 3 4 6 8 7 6 4 4 4 4 4 5 7 7 7 8 7 7
7 7 8 8 8 8 9 9 8 8 7 6 6 6 5 5 5 5 5 4 4 5 5 5 7 5 4 7 5 4 6 6 7 8 9 9 9 9
8 8 8 7 8 8 8 8 8 9 8 7 6 6 6 6 6 5 5 4 5 5 5 6 6 5 2 5 5 5 6 7 9 10 10 9 11 10
9 8 8 7 7 7 7 7 7 7 7 7 6 6 6 5 6 5 5 5 4 5 5 5 6 6 6 6 4 3 7 9 10 10 9 10 12 13
8 8 7 6 6 7 6 6 6 6 6 6 6 6 6 5 5 5 6 6 6 5 4 4 5 6 6 7 8 9 9 9 9 11 11 12 14 22
7 8 7 7 7 6 6 6 6 6 6 5 5 5 5 5 5 5 5 4 7 5 6 5 6 5 7 7 7 8 8 9 7 12 12 13 13 12
7 7 7 7 6 6 5 5 5 5 5 5 5 5 5 5 5 5 5 6 6 6 6 6 6 6 6 7 9 12 10 10 13 10 15 13 9 9
7 7 6 6 5 5 5 5 6 6 5 5 5 5 5 5 6 5 5 5 6 7 7 7 6 6 7 7 9 10 13 12 11 11 9 5 12 19
Wind_Direction
202 204 212 217 220 237 229 233 245 253 250 205 219 209 225 216 214 214 228 241 233 235 236 237 241 243 244 244 247 251 252 252 251 250 251 253 253 252
211 209 206 232 231 230 223 234 240 252 263 261 243 238 221 224 226 218 219 224 237 239 231 233 234 236 241 243 244 246 247 247 249 249 249 249 250 251
210 219 217 210 210 210 213 226 264 269 255 269 270 270 233 240 254 250 240 241 238 235 237 237 233 232 236 239 241 243 243 244 248 249 251 253 253 251
223 202 213 199 204 188 175 207 234 245 242 253 260 256 245 242 241 249 245 245 245 241 233 234 235 236 241 244 248 251 249 251 253 253 251 253 254 256
220 214 216 205 211 217 218 235 245 243 236 239 250 250 251 253 259 251 248 249 250 255 241 233 236 235 238 243 250 253 252 254 257 257 256 257 256 257
219 220 220 216 219 228 230 232 234 243 244 233 238 247 247 256 259 265 259 252 260 262 254 250 258 241 257 329 307 296 280 271 267 263 261 261 259 260
219 224 228 225 221 227 227 229 232 234 241 244 245 249 254 256 254 263 268 268 264 266 270 279 15 35 30 31 23 24 11 340 335 307 33 61 36 22
225 225 225 220 232 235 240 250 259 260 258 252 254 245 243 246 256 261 263 263 267 47 332 68 49 48 43 34 34 45 58 63 61 59 58 53 48 45
234 239 244 260 319 267 242 250 269 39 50 274 274 283 333 24 337 311 3 91 305 5 349 14 60 48 29 32 54 54 52 56 59 60 56 57 57 51
44 26 24 24 23 344 331 75 62 45 46 59 69 55 48 3 305 295 325 353 87 55 355 313 26 69 76 63 51 53 52 53 54 48 44 42 44 50
57 41 37 31 357 326 244 112 102 85 69 72 69 74 55 36 26 14 358 9 151 46 19 8 50 97 69 75 71 59 52 42 38 38 38 35 15 337
63 54 45 42 34 25 75 124 106 89 94 48 80 33 43 45 39 36 18 88 79 111 27 359 161 227 189 146 76 40 53 41 59 43 37 25 11 339
72 59 49 55 56 59 66 70 83 96 76 78 63 60 47 48 43 39 33 35 64 72 7 293 8 223 265 160 155 44 8 4 343 20 43 21 354 353
82 73 68 66 65 66 69 77 81 82 82 79 68 56 49 45 45 46 47 52 54 51 22 5 37 346 282 242 240 225 275 314 330 332 335 323 309 306
82 85 79 73 70 63 59 55 54 56 62 67 64 59 52 43 42 77 78 82 69 45 25 17 2 344 329 312 313 331 331 330 343 326 329 328 316 313
94 83 86 83 74 65 60 57 57 49 49 52 50 44 37 33 33 17 15 3 6 46 39 24 6 353 337 331 329 324 328 321 327 329 325 315 308 306
96 80 65 59 60 60 60 50 41 43 44 38 32 26 25 24 31 18 12 10 20 3 19 9 359 348 353 340 312 330 329 322 328 329 319 314 303 296
75 73 67 58 55 53 50 49 41 36 29 28 29 23 22 25 12 19 14 13 8 9 2 3 356 331 273 154 347 337 331 332 326 320 316 309 302 301
72 68 63 54 51 50 50 47 46 34 25 34 30 25 12 21 8 17 8 1 4 353 2 3 352 353 336 327 5 91 329 327 316 311 319 309 302 300
62 65 62 57 50 49 45 41 40 34 33 25 28 23 6 12 10 8 19 356 344 342 338 349 0 357 338 331 313 309 287 301 314 311 310 305 294 286
60 62 55 53 50 48 47 48 39 38 19 18 25 12 8 2 7 359 352 358 311 342 333 340 359 311 287 295 288 311 321 299 291 298 300 306 310 315
55 57 53 47 40 40 44 20 31 27 19 12 10 13 358 349 351 346 351 334 342 333 328 324 329 321 313 312 312 309 310 328 304 287 268 270 297 301
43 45 48 39 40 37 26 31 24 15 16 2 4 357 347 338 343 336 330 328 328 330 327 319 321 314 303 301 303 308 318 326 328 329 322 337 288 272